Tracking 29892 objects as of 21-Nov-2024
HD Live streaming from Space Station
objects crossing your sky now

SPACEMOBILE-005

Track SPACEMOBILE-005 now!
10-day predictions


NORAD ID: 61046
Int'l Code: 2024-163B
Perigee: 509.5 km
Apogee: 526.7 km
Inclination: 53.0 °
Period: 94.8 minutes
Semi major axis: 6889 km
RCS: Unknown
Launch date: September 12, 2024
Source: United States (US)
Launch site: AIR FORCE EASTERN TEST RANGE (AFETR)
Your satellite tracking list
Your tracking list is empty




NASA's NSSDC Master Catalog

Two Line Element Set (TLE):
1 61046U 24163B   24325.77500184  .00007763  00000-0  38817-3 0  9994
2 61046  52.9797  64.2513 0012441 168.7531 191.3742 15.18310403 10534
Source of the keplerian elements: AFSPC